Year,Month,Day,Hour,Minute,Value (Times are PST for temperature in C)
2014,01,20,00,00,3.30
2014,01,20,00,01,3.30
2014,01,20,00,02,3.30
2014,01,20,00,03,3.30
2014,01,20,00,04,3.30
2014,01,20,00,05,3.30
2014,01,20,00,06,3.30
2014,01,20,00,07,3.30
2014,01,20,00,08,3.30
2014,01,20,00,09,3.30
2014,01,20,00,10,3.30
2014,01,20,00,11,3.30
2014,01,20,00,12,3.30
2014,01,20,00,13,3.30
2014,01,20,00,14,3.30
2014,01,20,00,15,3.30
2014,01,20,00,16,3.30
2014,01,20,00,17,3.30
2014,01,20,00,18,3.30
2014,01,20,00,19,3.30
2014,01,20,00,20,3.30
2014,01,20,00,21,3.30
2014,01,20,00,22,3.30
2014,01,20,00,23,3.30
2014,01,20,00,24,3.30
2014,01,20,00,25,3.30
2014,01,20,00,26,3.30
2014,01,20,00,27,3.30
2014,01,20,00,28,3.30
2014,01,20,00,29,3.30
2014,01,20,00,30,3.30
2014,01,20,00,31,3.30
2014,01,20,00,32,3.30
2014,01,20,00,33,3.30
2014,01,20,00,34,3.30
2014,01,20,00,35,3.30
2014,01,20,00,36,3.30
2014,01,20,00,37,3.30
2014,01,20,00,38,3.30
2014,01,20,00,39,3.30
2014,01,20,00,40,3.30
2014,01,20,00,41,3.30
2014,01,20,00,42,3.30
2014,01,20,00,43,3.30
2014,01,20,00,44,3.30
2014,01,20,00,45,3.30
2014,01,20,00,46,3.30
2014,01,20,00,47,3.30
2014,01,20,00,48,3.30
2014,01,20,00,49,3.30
2014,01,20,00,50,3.30
2014,01,20,00,51,3.30
2014,01,20,00,52,3.30
2014,01,20,00,53,3.20
2014,01,20,00,54,3.20
2014,01,20,00,55,3.20
2014,01,20,00,56,3.20
2014,01,20,00,57,3.20
2014,01,20,00,58,3.20
2014,01,20,00,59,3.20
2014,01,20,01,00,3.20
2014,01,20,01,01,3.20
2014,01,20,01,02,3.20
2014,01,20,01,03,3.20
2014,01,20,01,04,3.20
2014,01,20,01,05,3.20
2014,01,20,01,06,3.20
2014,01,20,01,07,3.20
2014,01,20,01,08,3.20
2014,01,20,01,09,3.20
2014,01,20,01,10,3.20
2014,01,20,01,11,3.20
2014,01,20,01,12,3.20
2014,01,20,01,13,3.20
2014,01,20,01,14,3.20
2014,01,20,01,15,3.20
2014,01,20,01,16,3.20
2014,01,20,01,17,3.20
2014,01,20,01,18,3.20
2014,01,20,01,19,3.20
2014,01,20,01,20,3.20
2014,01,20,01,21,3.20
2014,01,20,01,22,3.20
2014,01,20,01,23,3.20
2014,01,20,01,24,3.20
2014,01,20,01,25,3.20
2014,01,20,01,26,3.20
2014,01,20,01,27,3.20
2014,01,20,01,28,3.20
2014,01,20,01,29,3.20
2014,01,20,01,30,3.20
2014,01,20,01,31,3.20
2014,01,20,01,32,3.20
2014,01,20,01,33,3.20
2014,01,20,01,34,3.20
2014,01,20,01,35,3.20
2014,01,20,01,36,3.20
2014,01,20,01,37,3.20
2014,01,20,01,38,3.20
2014,01,20,01,39,3.10
2014,01,20,01,40,3.20
2014,01,20,01,41,3.20
2014,01,20,01,42,3.20
2014,01,20,01,43,3.20
2014,01,20,01,44,3.20
2014,01,20,01,45,3.20
2014,01,20,01,46,3.20
2014,01,20,01,47,3.20
2014,01,20,01,48,3.20
2014,01,20,01,49,3.20
2014,01,20,01,50,3.20
2014,01,20,01,51,3.20
2014,01,20,01,52,3.20
2014,01,20,01,53,3.20
2014,01,20,01,54,3.20
2014,01,20,01,55,3.20
2014,01,20,01,56,3.20
2014,01,20,01,57,3.20
2014,01,20,01,58,3.20
2014,01,20,01,59,3.20
2014,01,20,02,00,3.20
2014,01,20,02,01,3.20
2014,01,20,02,02,3.20
2014,01,20,02,03,3.20
2014,01,20,02,04,3.20
2014,01,20,02,05,3.20
2014,01,20,02,06,3.20
2014,01,20,02,07,3.20
2014,01,20,02,08,3.20
2014,01,20,02,09,3.20
2014,01,20,02,10,3.20
2014,01,20,02,11,3.20
2014,01,20,02,12,3.20
2014,01,20,02,13,3.20
2014,01,20,02,14,3.20
2014,01,20,02,15,3.20
2014,01,20,02,16,3.20
2014,01,20,02,17,3.10
2014,01,20,02,18,3.10
2014,01,20,02,19,3.10
2014,01,20,02,20,3.10
2014,01,20,02,21,3.10
2014,01,20,02,22,3.10
2014,01,20,02,23,3.10
2014,01,20,02,24,3.10
2014,01,20,02,25,3.10
2014,01,20,02,26,3.10
2014,01,20,02,27,3.10
2014,01,20,02,28,3.10
2014,01,20,02,29,3.10
2014,01,20,02,30,3.10
2014,01,20,02,31,3.10
2014,01,20,02,32,3.10
2014,01,20,02,33,3.10
2014,01,20,02,34,3.10
2014,01,20,02,35,3.10
2014,01,20,02,36,3.10
2014,01,20,02,37,3.10
2014,01,20,02,38,3.10
2014,01,20,02,39,3.10
2014,01,20,02,40,3.10
2014,01,20,02,41,3.10
2014,01,20,02,42,3.10
2014,01,20,02,43,3.10
2014,01,20,02,44,3.10
2014,01,20,02,45,3.10
2014,01,20,02,46,3.10
2014,01,20,02,47,3.10
2014,01,20,02,48,3.10
2014,01,20,02,49,3.10
2014,01,20,02,50,3.10
2014,01,20,02,51,3.00
2014,01,20,02,52,3.00
2014,01,20,02,53,3.00
2014,01,20,02,54,3.00
2014,01,20,02,55,3.00
2014,01,20,02,56,3.00
2014,01,20,02,57,3.00
2014,01,20,02,58,3.00
2014,01,20,02,59,2.90
2014,01,20,03,00,2.90
2014,01,20,03,01,2.90
2014,01,20,03,02,2.90
2014,01,20,03,03,3.00
2014,01,20,03,04,2.90
2014,01,20,03,05,2.90
2014,01,20,03,06,2.90
2014,01,20,03,07,2.90
2014,01,20,03,08,2.90
2014,01,20,03,09,2.90
2014,01,20,03,10,2.90
2014,01,20,03,11,2.90
2014,01,20,03,12,2.90
2014,01,20,03,13,2.90
2014,01,20,03,14,2.90
2014,01,20,03,15,2.90
2014,01,20,03,16,2.90
2014,01,20,03,17,2.90
2014,01,20,03,18,2.90
2014,01,20,03,19,2.90
2014,01,20,03,20,2.90
2014,01,20,03,21,2.90
2014,01,20,03,22,2.90
2014,01,20,03,23,2.90
2014,01,20,03,24,2.90
2014,01,20,03,25,2.90
2014,01,20,03,26,2.90
2014,01,20,03,27,2.90
2014,01,20,03,28,2.80
2014,01,20,03,29,2.80
2014,01,20,03,30,2.80
2014,01,20,03,31,2.80
2014,01,20,03,32,2.80
2014,01,20,03,33,2.80
2014,01,20,03,34,2.80
2014,01,20,03,35,2.80
2014,01,20,03,36,2.80
2014,01,20,03,37,2.80
2014,01,20,03,38,2.80
2014,01,20,03,39,2.80
2014,01,20,03,40,2.80
2014,01,20,03,41,2.80
2014,01,20,03,42,2.80
2014,01,20,03,43,2.70
2014,01,20,03,44,2.70
2014,01,20,03,45,2.70
2014,01,20,03,46,2.70
2014,01,20,03,47,2.70
2014,01,20,03,48,2.70
2014,01,20,03,49,2.70
2014,01,20,03,50,2.70
2014,01,20,03,51,2.70
2014,01,20,03,52,2.70
2014,01,20,03,53,2.70
2014,01,20,03,54,2.70
2014,01,20,03,55,2.70
2014,01,20,03,56,2.70
2014,01,20,03,57,2.70
2014,01,20,03,58,2.70
2014,01,20,03,59,2.70
2014,01,20,04,00,2.70
2014,01,20,04,01,2.70
2014,01,20,04,02,2.70
2014,01,20,04,03,2.70
2014,01,20,04,04,2.70
2014,01,20,04,05,2.70
2014,01,20,04,06,2.70
2014,01,20,04,07,2.70
2014,01,20,04,08,2.70
2014,01,20,04,09,2.60
2014,01,20,04,10,2.60
2014,01,20,04,11,2.60
2014,01,20,04,12,2.60
2014,01,20,04,13,2.60
2014,01,20,04,14,2.60
2014,01,20,04,15,2.60
2014,01,20,04,16,2.60
2014,01,20,04,17,2.60
2014,01,20,04,18,2.60
2014,01,20,04,19,2.60
2014,01,20,04,20,2.60
2014,01,20,04,21,2.60
2014,01,20,04,22,2.60
2014,01,20,04,23,2.60
2014,01,20,04,24,2.60
2014,01,20,04,25,2.60
2014,01,20,04,26,2.60
2014,01,20,04,27,2.60
2014,01,20,04,28,2.60
2014,01,20,04,29,2.60
2014,01,20,04,30,2.60
2014,01,20,04,31,2.60
2014,01,20,04,32,2.60
2014,01,20,04,33,2.60
2014,01,20,04,34,2.60
2014,01,20,04,35,2.60
2014,01,20,04,36,2.60
2014,01,20,04,37,2.50
2014,01,20,04,38,2.50
2014,01,20,04,39,2.50
2014,01,20,04,40,2.50
2014,01,20,04,41,2.50
2014,01,20,04,42,2.50
2014,01,20,04,43,2.50
2014,01,20,04,44,2.50
2014,01,20,04,45,2.50
2014,01,20,04,46,2.50
2014,01,20,04,47,2.50
2014,01,20,04,48,2.50
2014,01,20,04,49,2.50
2014,01,20,04,50,2.50
2014,01,20,04,51,2.50
2014,01,20,04,52,2.50
2014,01,20,04,53,2.50
2014,01,20,04,54,2.50
2014,01,20,04,55,2.50
2014,01,20,04,56,2.50
2014,01,20,04,57,2.50
2014,01,20,04,58,2.50
2014,01,20,04,59,2.50
2014,01,20,05,00,2.40
2014,01,20,05,01,2.40
2014,01,20,05,02,2.50
2014,01,20,05,03,2.50
2014,01,20,05,04,2.40
2014,01,20,05,05,2.50
2014,01,20,05,06,2.50
2014,01,20,05,07,2.50
2014,01,20,05,08,2.50
2014,01,20,05,09,2.40
2014,01,20,05,10,2.40
2014,01,20,05,11,2.40
2014,01,20,05,12,2.40
2014,01,20,05,13,2.40
2014,01,20,05,14,2.40
2014,01,20,05,15,2.40
2014,01,20,05,16,2.50
2014,01,20,05,17,2.40
2014,01,20,05,18,2.40
2014,01,20,05,19,2.40
2014,01,20,05,20,2.40
2014,01,20,05,21,2.40
2014,01,20,05,22,2.40
2014,01,20,05,23,2.40
2014,01,20,05,24,2.40
2014,01,20,05,25,2.40
2014,01,20,05,26,2.40
2014,01,20,05,27,2.40
2014,01,20,05,28,2.40
2014,01,20,05,29,2.40
2014,01,20,05,30,2.40
2014,01,20,05,31,2.40
2014,01,20,05,32,2.40
2014,01,20,05,33,2.40
2014,01,20,05,34,2.40
2014,01,20,05,35,2.40
2014,01,20,05,36,2.40
2014,01,20,05,37,2.40
2014,01,20,05,38,2.40
2014,01,20,05,39,2.40
2014,01,20,05,40,2.40
2014,01,20,05,41,2.40
2014,01,20,05,42,2.40
2014,01,20,05,43,2.40
2014,01,20,05,44,2.40
2014,01,20,05,45,2.40
2014,01,20,05,46,2.40
2014,01,20,05,47,2.40
2014,01,20,05,48,2.40
2014,01,20,05,49,2.40
2014,01,20,05,50,2.40
2014,01,20,05,51,2.40
2014,01,20,05,52,2.40
2014,01,20,05,53,2.40
2014,01,20,05,54,2.40
2014,01,20,05,55,2.40
2014,01,20,05,56,2.40
2014,01,20,05,57,2.40
2014,01,20,05,58,2.40
2014,01,20,05,59,2.40
2014,01,20,06,00,2.40
2014,01,20,06,01,2.40
2014,01,20,06,02,2.40
2014,01,20,06,03,2.40
2014,01,20,06,04,2.40
2014,01,20,06,05,2.40
2014,01,20,06,06,2.40
2014,01,20,06,07,2.40
2014,01,20,06,08,2.40
2014,01,20,06,09,2.40
2014,01,20,06,10,2.40
2014,01,20,06,11,2.40
2014,01,20,06,12,2.40
2014,01,20,06,13,2.40
2014,01,20,06,14,2.40
2014,01,20,06,15,2.40
2014,01,20,06,16,2.40
2014,01,20,06,17,2.40
2014,01,20,06,18,2.40
2014,01,20,06,19,2.40
2014,01,20,06,20,2.40
2014,01,20,06,21,2.40
2014,01,20,06,22,2.40
2014,01,20,06,23,2.40
2014,01,20,06,24,2.40
2014,01,20,06,25,2.40
2014,01,20,06,26,2.40
2014,01,20,06,27,2.40
2014,01,20,06,28,2.40
2014,01,20,06,29,2.40
2014,01,20,06,30,2.40
2014,01,20,06,31,2.40
2014,01,20,06,32,2.40
2014,01,20,06,33,2.40
2014,01,20,06,34,2.40
2014,01,20,06,35,2.40
2014,01,20,06,36,2.40
2014,01,20,06,37,2.40
2014,01,20,06,38,2.40
2014,01,20,06,39,2.40
2014,01,20,06,40,2.40
2014,01,20,06,41,2.40
2014,01,20,06,42,2.40
2014,01,20,06,43,2.40
2014,01,20,06,44,2.30
2014,01,20,06,45,2.30
2014,01,20,06,46,2.30
2014,01,20,06,47,2.30
2014,01,20,06,48,2.30
2014,01,20,06,49,2.30
2014,01,20,06,50,2.40
2014,01,20,06,51,2.40
2014,01,20,06,52,2.40
2014,01,20,06,53,2.40
2014,01,20,06,54,2.40
2014,01,20,06,55,2.40
2014,01,20,06,56,2.40
2014,01,20,06,57,2.40
2014,01,20,06,58,2.40
2014,01,20,06,59,2.40
2014,01,20,07,00,2.40
2014,01,20,07,01,2.40
2014,01,20,07,02,2.40
2014,01,20,07,03,2.40
2014,01,20,07,04,2.40
2014,01,20,07,05,2.40
2014,01,20,07,06,2.40
2014,01,20,07,07,2.50
2014,01,20,07,08,2.50
2014,01,20,07,09,2.50
2014,01,20,07,10,2.50
2014,01,20,07,11,2.50
2014,01,20,07,12,2.50
2014,01,20,07,13,2.50
2014,01,20,07,14,2.50
2014,01,20,07,15,2.50
2014,01,20,07,16,2.50
2014,01,20,07,17,2.50
2014,01,20,07,18,2.50
2014,01,20,07,19,2.50
2014,01,20,07,20,2.50
2014,01,20,07,21,2.50
2014,01,20,07,22,2.50
2014,01,20,07,23,2.50
2014,01,20,07,24,2.50
2014,01,20,07,25,2.50
2014,01,20,07,26,2.50
2014,01,20,07,27,2.50
2014,01,20,07,28,2.50
2014,01,20,07,29,2.50
2014,01,20,07,30,2.50
2014,01,20,07,31,2.50
2014,01,20,07,32,2.50
2014,01,20,07,33,2.50
2014,01,20,07,34,2.50
2014,01,20,07,35,2.50
2014,01,20,07,36,2.50
2014,01,20,07,37,2.40
2014,01,20,07,38,2.40
2014,01,20,07,39,2.40
2014,01,20,07,40,2.40
2014,01,20,07,41,2.40
2014,01,20,07,42,2.40
2014,01,20,07,43,2.40
2014,01,20,07,44,2.40
2014,01,20,07,45,2.40
2014,01,20,07,46,2.40
2014,01,20,07,47,2.40
2014,01,20,07,48,2.40
2014,01,20,07,49,2.40
2014,01,20,07,50,2.40
2014,01,20,07,51,2.40
2014,01,20,07,52,2.40
2014,01,20,07,53,2.40
2014,01,20,07,54,2.40
2014,01,20,07,55,2.40
2014,01,20,07,56,2.50
2014,01,20,07,57,2.50
2014,01,20,07,58,2.50
2014,01,20,07,59,2.40
2014,01,20,08,00,2.40
2014,01,20,08,01,2.40
2014,01,20,08,02,2.40
2014,01,20,08,03,2.40
2014,01,20,08,04,2.40
2014,01,20,08,05,2.40
2014,01,20,08,06,2.40
2014,01,20,08,07,2.50
2014,01,20,08,08,2.50
2014,01,20,08,09,2.50
2014,01,20,08,10,2.50
2014,01,20,08,11,2.50
2014,01,20,08,12,2.50
2014,01,20,08,13,2.50
2014,01,20,08,14,2.50
2014,01,20,08,15,2.50
2014,01,20,08,16,2.50
2014,01,20,08,17,2.50
2014,01,20,08,18,2.50
2014,01,20,08,19,2.50
2014,01,20,08,20,2.50
2014,01,20,08,21,2.50
2014,01,20,08,22,2.50
2014,01,20,08,23,2.50
2014,01,20,08,24,2.50
2014,01,20,08,25,2.50
2014,01,20,08,26,2.50
2014,01,20,08,27,2.50
2014,01,20,08,28,2.50
2014,01,20,08,29,2.50
2014,01,20,08,30,2.50
2014,01,20,08,31,2.50
2014,01,20,08,32,2.50
2014,01,20,08,33,2.60
2014,01,20,08,34,2.50
2014,01,20,08,35,2.60
2014,01,20,08,36,2.50
2014,01,20,08,37,2.50
2014,01,20,08,38,2.50
2014,01,20,08,39,2.50
2014,01,20,08,40,2.50
2014,01,20,08,41,2.50
2014,01,20,08,42,2.50
2014,01,20,08,43,2.50
2014,01,20,08,44,2.50
2014,01,20,08,45,2.50
2014,01,20,08,46,2.50
2014,01,20,08,47,2.50
2014,01,20,08,48,2.50
2014,01,20,08,49,2.50
2014,01,20,08,50,2.50
2014,01,20,08,51,2.60
2014,01,20,08,52,2.60
2014,01,20,08,53,2.60
2014,01,20,08,54,2.60
2014,01,20,08,55,2.60
2014,01,20,08,56,2.60
2014,01,20,08,57,2.60
2014,01,20,08,58,2.60
2014,01,20,08,59,2.60
2014,01,20,09,00,2.60
2014,01,20,09,01,2.60
2014,01,20,09,02,2.60
2014,01,20,09,03,2.60
2014,01,20,09,04,2.60
2014,01,20,09,05,2.60
2014,01,20,09,06,2.60
2014,01,20,09,07,2.60
2014,01,20,09,08,2.60
2014,01,20,09,09,2.60
2014,01,20,09,10,2.60
2014,01,20,09,11,2.60
2014,01,20,09,12,2.60
2014,01,20,09,13,2.60
2014,01,20,09,14,2.60
2014,01,20,09,15,2.60
2014,01,20,09,16,2.60
2014,01,20,09,17,2.60
2014,01,20,09,18,2.60
2014,01,20,09,19,2.70
2014,01,20,09,20,2.70
2014,01,20,09,21,2.70
2014,01,20,09,22,2.70
2014,01,20,09,23,2.70
2014,01,20,09,24,2.70
2014,01,20,09,25,2.70
2014,01,20,09,26,2.70
2014,01,20,09,27,2.70
2014,01,20,09,28,2.70
2014,01,20,09,29,2.70
2014,01,20,09,30,2.70
2014,01,20,09,31,2.70
2014,01,20,09,32,2.70
2014,01,20,09,33,2.70
2014,01,20,09,34,2.70
2014,01,20,09,35,2.80
2014,01,20,09,36,2.80
2014,01,20,09,37,2.80
2014,01,20,09,38,2.80
2014,01,20,09,39,2.80
2014,01,20,09,40,2.80
2014,01,20,09,41,2.80
2014,01,20,09,42,2.80
2014,01,20,09,43,2.90
2014,01,20,09,44,2.90
2014,01,20,09,45,2.80
2014,01,20,09,46,2.80
2014,01,20,09,47,2.90
2014,01,20,09,48,2.90
2014,01,20,09,49,2.90
2014,01,20,09,50,2.90
2014,01,20,09,51,2.90
2014,01,20,09,52,2.90
2014,01,20,09,53,2.90
2014,01,20,09,54,2.90
2014,01,20,09,55,2.90
2014,01,20,09,56,2.90
2014,01,20,09,57,2.90
2014,01,20,09,58,2.90
2014,01,20,09,59,2.90
2014,01,20,10,00,2.90
2014,01,20,10,01,3.00
2014,01,20,10,02,3.00
2014,01,20,10,03,3.00
2014,01,20,10,04,3.00
2014,01,20,10,05,3.00
2014,01,20,10,06,3.00
2014,01,20,10,07,3.10
2014,01,20,10,08,3.10
2014,01,20,10,09,3.10
2014,01,20,10,10,3.10
2014,01,20,10,11,3.10
2014,01,20,10,12,3.10
2014,01,20,10,13,3.10
2014,01,20,10,14,3.20
2014,01,20,10,15,3.20
2014,01,20,10,16,3.20
2014,01,20,10,17,3.30
2014,01,20,10,18,3.40
2014,01,20,10,19,3.40
2014,01,20,10,20,3.40
2014,01,20,10,21,3.50
2014,01,20,10,22,3.50
2014,01,20,10,23,3.50
2014,01,20,10,24,3.50
2014,01,20,10,25,3.50
2014,01,20,10,26,3.50
2014,01,20,10,27,3.50
2014,01,20,10,28,3.50
2014,01,20,10,29,3.50
2014,01,20,10,30,3.50
2014,01,20,10,31,3.50
2014,01,20,10,32,3.50
2014,01,20,10,33,3.60
2014,01,20,10,34,3.60
2014,01,20,10,35,3.60
2014,01,20,10,36,3.60
2014,01,20,10,37,3.60
2014,01,20,10,38,3.60
2014,01,20,10,39,3.60
2014,01,20,10,40,3.60
2014,01,20,10,41,3.60
2014,01,20,10,42,3.60
2014,01,20,10,43,3.70
2014,01,20,10,44,3.70
2014,01,20,10,45,3.70
2014,01,20,10,46,3.70
2014,01,20,10,47,3.70
2014,01,20,10,48,3.70
2014,01,20,10,49,3.70
2014,01,20,10,50,3.70
2014,01,20,10,51,3.70
2014,01,20,10,52,3.70
2014,01,20,10,53,3.70
2014,01,20,10,54,3.70
2014,01,20,10,55,3.70
2014,01,20,10,56,3.70
2014,01,20,10,57,3.70
2014,01,20,10,58,3.70
2014,01,20,10,59,3.70
2014,01,20,11,00,3.80
2014,01,20,11,01,3.80
2014,01,20,11,02,3.90
2014,01,20,11,03,3.90
2014,01,20,11,04,4.00
2014,01,20,11,05,4.00
2014,01,20,11,06,4.10
2014,01,20,11,07,4.10
2014,01,20,11,08,4.10
2014,01,20,11,09,4.00
2014,01,20,11,10,4.00
2014,01,20,11,11,4.00
2014,01,20,11,12,4.00
2014,01,20,11,13,4.00
2014,01,20,11,14,3.90
2014,01,20,11,15,3.90
2014,01,20,11,16,3.90
2014,01,20,11,17,3.90
2014,01,20,11,18,3.90
2014,01,20,11,19,3.90
2014,01,20,11,20,3.90
2014,01,20,11,21,3.90
2014,01,20,11,22,3.90
2014,01,20,11,23,3.90
2014,01,20,11,24,3.90
2014,01,20,11,25,3.90
2014,01,20,11,26,3.90
2014,01,20,11,27,3.90
2014,01,20,11,28,3.90
2014,01,20,11,29,4.00
2014,01,20,11,30,4.00
2014,01,20,11,31,4.00
2014,01,20,11,32,4.00
2014,01,20,11,33,4.00
2014,01,20,11,34,4.10
2014,01,20,11,35,4.10
2014,01,20,11,36,4.10
2014,01,20,11,37,4.10
2014,01,20,11,38,4.10
2014,01,20,11,39,4.10
2014,01,20,11,40,4.10
2014,01,20,11,41,4.20
2014,01,20,11,42,4.20
2014,01,20,11,43,4.20
2014,01,20,11,44,4.20
2014,01,20,11,45,4.30
2014,01,20,11,46,4.30
2014,01,20,11,47,4.30
2014,01,20,11,48,4.30
2014,01,20,11,49,4.30
2014,01,20,11,50,4.40
2014,01,20,11,51,4.40
2014,01,20,11,52,4.50
2014,01,20,11,53,4.60
2014,01,20,11,54,4.60
2014,01,20,11,55,4.60
2014,01,20,11,56,4.60
2014,01,20,11,57,4.50
2014,01,20,11,58,4.60
2014,01,20,11,59,4.50
2014,01,20,12,00,4.60
2014,01,20,12,01,4.50
2014,01,20,12,02,4.50
2014,01,20,12,03,4.50
2014,01,20,12,04,4.50
2014,01,20,12,05,4.40
2014,01,20,12,06,4.40
2014,01,20,12,07,4.40
2014,01,20,12,08,4.30
2014,01,20,12,09,4.30
2014,01,20,12,10,4.30
2014,01,20,12,11,4.30
2014,01,20,12,12,4.20
2014,01,20,12,13,4.20
2014,01,20,12,14,4.30
2014,01,20,12,15,4.30
2014,01,20,12,16,4.30
2014,01,20,12,17,4.40
2014,01,20,12,18,4.40
2014,01,20,12,19,4.40
2014,01,20,12,20,4.30
2014,01,20,12,21,4.30
2014,01,20,12,22,4.30
2014,01,20,12,23,4.20
2014,01,20,12,24,4.20
2014,01,20,12,25,4.20
2014,01,20,12,26,4.20
2014,01,20,12,27,4.20
2014,01,20,12,28,4.20
2014,01,20,12,29,4.20
2014,01,20,12,30,4.20
2014,01,20,12,31,4.20
2014,01,20,12,32,4.20
2014,01,20,12,33,4.20
2014,01,20,12,34,4.30
2014,01,20,12,35,4.30
2014,01,20,12,36,4.40
2014,01,20,12,37,4.40
2014,01,20,12,38,4.50
2014,01,20,12,39,4.50
2014,01,20,12,40,4.50
2014,01,20,12,41,4.40
2014,01,20,12,42,4.40
2014,01,20,12,43,4.40
2014,01,20,12,44,4.30
2014,01,20,12,45,4.30
2014,01,20,12,46,4.30
2014,01,20,12,47,4.30
2014,01,20,12,48,4.20
2014,01,20,12,49,4.20
2014,01,20,12,50,4.20
2014,01,20,12,51,4.20
2014,01,20,12,52,4.10
2014,01,20,12,53,4.10
2014,01,20,12,54,4.10
2014,01,20,12,55,4.10
2014,01,20,12,56,4.10
2014,01,20,12,57,4.10
2014,01,20,12,58,4.10
2014,01,20,12,59,4.10
2014,01,20,13,00,4.10
2014,01,20,13,01,4.10
2014,01,20,13,02,4.10
2014,01,20,13,03,4.10
2014,01,20,13,04,4.10
2014,01,20,13,05,4.10
2014,01,20,13,06,4.10
2014,01,20,13,07,4.10
2014,01,20,13,08,4.20
2014,01,20,13,09,4.20
2014,01,20,13,10,4.20
2014,01,20,13,11,4.20
2014,01,20,13,12,4.30
2014,01,20,13,13,4.30
2014,01,20,13,14,4.30
2014,01,20,13,15,4.30
2014,01,20,13,16,4.30
2014,01,20,13,17,4.30
2014,01,20,13,18,4.30
2014,01,20,13,19,4.30
2014,01,20,13,20,4.30
2014,01,20,13,21,4.30
2014,01,20,13,22,4.30
2014,01,20,13,23,4.30
2014,01,20,13,24,4.30
2014,01,20,13,25,4.30
2014,01,20,13,26,4.30
2014,01,20,13,27,4.30
2014,01,20,13,28,4.30
2014,01,20,13,29,4.30
2014,01,20,13,30,4.30
2014,01,20,13,31,4.30
2014,01,20,13,32,4.30
2014,01,20,13,33,4.30
2014,01,20,13,34,4.30
2014,01,20,13,35,4.30
2014,01,20,13,36,4.30
2014,01,20,13,37,4.30
2014,01,20,13,38,4.20
2014,01,20,13,39,4.20
2014,01,20,13,40,4.20
2014,01,20,13,41,4.20
2014,01,20,13,42,4.20
2014,01,20,13,43,4.20
2014,01,20,13,44,4.20
2014,01,20,13,45,4.20
2014,01,20,13,46,4.20
2014,01,20,13,47,4.20
2014,01,20,13,48,4.20
2014,01,20,13,49,4.20
2014,01,20,13,50,4.20
2014,01,20,13,51,4.20
2014,01,20,13,52,4.20
2014,01,20,13,53,4.10
2014,01,20,13,54,4.10
2014,01,20,13,55,4.10
2014,01,20,13,56,4.10
2014,01,20,13,57,4.10
2014,01,20,13,58,4.10
2014,01,20,13,59,4.10
2014,01,20,14,00,4.10
2014,01,20,14,01,4.10
2014,01,20,14,02,4.10
2014,01,20,14,03,4.10
2014,01,20,14,04,4.10
2014,01,20,14,05,4.10
2014,01,20,14,06,4.10
2014,01,20,14,07,4.10
2014,01,20,14,08,4.10
2014,01,20,14,09,4.10
2014,01,20,14,10,4.10
2014,01,20,14,11,4.10
2014,01,20,14,12,4.10
2014,01,20,14,13,4.10
2014,01,20,14,14,4.10
2014,01,20,14,15,4.10
2014,01,20,14,16,4.10
2014,01,20,14,17,4.20
2014,01,20,14,18,4.20
2014,01,20,14,19,4.20
2014,01,20,14,20,4.20
2014,01,20,14,21,4.30
2014,01,20,14,22,4.30
2014,01,20,14,23,4.30
2014,01,20,14,24,4.40
2014,01,20,14,25,4.40
2014,01,20,14,26,4.40
2014,01,20,14,27,4.40
2014,01,20,14,28,4.40
2014,01,20,14,29,4.30
2014,01,20,14,30,4.30
2014,01,20,14,31,4.20
2014,01,20,14,32,4.20
2014,01,20,14,33,4.20
2014,01,20,14,34,4.10
2014,01,20,14,35,4.20
2014,01,20,14,36,4.20
2014,01,20,14,37,4.10
2014,01,20,14,38,4.10
2014,01,20,14,39,4.10
2014,01,20,14,40,4.10
2014,01,20,14,41,4.10
2014,01,20,14,42,4.10
2014,01,20,14,43,4.10
2014,01,20,14,44,4.20
2014,01,20,14,45,4.20
2014,01,20,14,46,4.20
2014,01,20,14,47,4.20
2014,01,20,14,48,4.20
2014,01,20,14,49,4.20
2014,01,20,14,50,4.10
2014,01,20,14,51,4.10
2014,01,20,14,52,4.10
2014,01,20,14,53,4.10
2014,01,20,14,54,4.10
2014,01,20,14,55,4.10
2014,01,20,14,56,4.10
2014,01,20,14,57,4.10
2014,01,20,14,58,4.10
2014,01,20,14,59,4.10
2014,01,20,15,00,4.10
2014,01,20,15,01,4.10
2014,01,20,15,02,4.10
2014,01,20,15,03,4.10
2014,01,20,15,04,4.20
2014,01,20,15,05,4.20
2014,01,20,15,06,4.20
2014,01,20,15,07,4.20
2014,01,20,15,08,4.20
2014,01,20,15,09,4.20
2014,01,20,15,10,4.20
2014,01,20,15,11,4.20
2014,01,20,15,12,4.20
2014,01,20,15,13,4.20
2014,01,20,15,14,4.20
2014,01,20,15,15,4.20
2014,01,20,15,16,4.20
2014,01,20,15,17,4.20
2014,01,20,15,18,4.20
2014,01,20,15,19,4.20
2014,01,20,15,20,4.10
2014,01,20,15,21,4.10
2014,01,20,15,22,4.10
2014,01,20,15,23,4.10
2014,01,20,15,24,4.10
2014,01,20,15,25,4.10
2014,01,20,15,26,4.10
2014,01,20,15,27,4.10
2014,01,20,15,28,4.10
2014,01,20,15,29,4.10
2014,01,20,15,30,4.00
2014,01,20,15,31,4.00
2014,01,20,15,32,3.90
2014,01,20,15,33,3.90
2014,01,20,15,34,3.90
2014,01,20,15,35,3.90
2014,01,20,15,36,3.80
2014,01,20,15,37,3.80
2014,01,20,15,38,3.80
2014,01,20,15,39,3.80
2014,01,20,15,40,3.80
2014,01,20,15,41,3.80
2014,01,20,15,42,3.80
2014,01,20,15,43,3.80
2014,01,20,15,44,3.90
2014,01,20,15,45,3.90
2014,01,20,15,46,4.00
2014,01,20,15,47,4.10
2014,01,20,15,48,4.10
2014,01,20,15,49,4.10
2014,01,20,15,50,4.20
2014,01,20,15,51,4.20
2014,01,20,15,52,4.20
2014,01,20,15,53,4.10
2014,01,20,15,54,4.10
2014,01,20,15,55,4.10
2014,01,20,15,56,4.10
2014,01,20,15,57,4.10
2014,01,20,15,58,4.10
2014,01,20,15,59,4.10
2014,01,20,16,00,4.10
2014,01,20,16,01,4.00
2014,01,20,16,02,4.00
2014,01,20,16,03,3.90
2014,01,20,16,04,3.90
2014,01,20,16,05,3.90
2014,01,20,16,06,3.90
2014,01,20,16,07,3.90
2014,01,20,16,08,3.90
2014,01,20,16,09,3.90
2014,01,20,16,10,3.80
2014,01,20,16,11,3.80
2014,01,20,16,12,3.80
2014,01,20,16,13,3.80
2014,01,20,16,14,3.80
2014,01,20,16,15,3.80
2014,01,20,16,16,3.80
2014,01,20,16,17,3.80
2014,01,20,16,18,3.70
2014,01,20,16,19,3.80
2014,01,20,16,20,3.70
2014,01,20,16,21,3.70
2014,01,20,16,22,3.70
2014,01,20,16,23,3.70
2014,01,20,16,24,3.70
2014,01,20,16,25,3.70
2014,01,20,16,26,3.70
2014,01,20,16,27,3.70
2014,01,20,16,28,3.70
2014,01,20,16,29,3.70
2014,01,20,16,30,3.70
2014,01,20,16,31,3.70
2014,01,20,16,32,3.70
2014,01,20,16,33,3.60
2014,01,20,16,34,3.60
2014,01,20,16,35,3.60
2014,01,20,16,36,3.60
2014,01,20,16,37,3.60
2014,01,20,16,38,3.60
2014,01,20,16,39,3.60
2014,01,20,16,40,3.60
2014,01,20,16,41,3.60
2014,01,20,16,42,3.60
2014,01,20,16,43,3.60
2014,01,20,16,44,3.60
2014,01,20,16,45,3.50
2014,01,20,16,46,3.50
2014,01,20,16,47,3.50
2014,01,20,16,48,3.50
2014,01,20,16,49,3.50
2014,01,20,16,50,3.50
2014,01,20,16,51,3.50
2014,01,20,16,52,3.50
2014,01,20,16,53,3.50
2014,01,20,16,54,3.40
2014,01,20,16,55,3.50
2014,01,20,16,56,3.50
2014,01,20,16,57,3.40
2014,01,20,16,58,3.40
2014,01,20,16,59,3.40
2014,01,20,17,00,3.40
2014,01,20,17,01,3.40
2014,01,20,17,02,3.40
2014,01,20,17,03,3.40
2014,01,20,17,04,3.40
2014,01,20,17,05,3.40
2014,01,20,17,06,3.40
2014,01,20,17,07,3.40
2014,01,20,17,08,3.40
2014,01,20,17,09,3.40
2014,01,20,17,10,3.40
2014,01,20,17,11,3.40
2014,01,20,17,12,3.40
2014,01,20,17,13,3.40
2014,01,20,17,14,3.40
2014,01,20,17,15,3.40
2014,01,20,17,16,3.40
2014,01,20,17,17,3.40
2014,01,20,17,18,3.40
2014,01,20,17,19,3.40
2014,01,20,17,20,3.40
2014,01,20,17,21,3.40
2014,01,20,17,22,3.40
2014,01,20,17,23,3.40
2014,01,20,17,24,3.40
2014,01,20,17,25,3.40
2014,01,20,17,26,3.50
2014,01,20,17,27,3.50
2014,01,20,17,28,3.50
2014,01,20,17,29,3.50
2014,01,20,17,30,3.50
2014,01,20,17,31,3.50
2014,01,20,17,32,3.50
2014,01,20,17,33,3.40
2014,01,20,17,34,3.40
2014,01,20,17,35,3.40
2014,01,20,17,36,3.40
2014,01,20,17,37,3.40
2014,01,20,17,38,3.40
2014,01,20,17,39,3.40
2014,01,20,17,40,3.30
2014,01,20,17,41,3.30
2014,01,20,17,42,3.30
2014,01,20,17,43,3.30
2014,01,20,17,44,3.30
2014,01,20,17,45,3.30
2014,01,20,17,46,3.30
2014,01,20,17,47,3.30
2014,01,20,17,48,3.30
2014,01,20,17,49,3.30
2014,01,20,17,50,3.30
2014,01,20,17,51,3.30
2014,01,20,17,52,3.30
2014,01,20,17,53,3.30
2014,01,20,17,54,3.20
2014,01,20,17,55,3.20
2014,01,20,17,56,3.20
2014,01,20,17,57,3.20
2014,01,20,17,58,3.30
2014,01,20,17,59,3.20
2014,01,20,18,00,3.30
2014,01,20,18,01,3.30
2014,01,20,18,02,3.30
2014,01,20,18,03,3.30
2014,01,20,18,04,3.30
2014,01,20,18,05,3.30
2014,01,20,18,06,3.30